FW2695 Weather Reports


Display with metric or nautical units.
time (UTC)temp
F
wind
direction
speed
MPH
gust
MPH
rain 1hr
in
rain 24hr
in
rain mn
in
humidity
%
barometer
mb
20260831220034 91 181 1.0 6.0 0.00 0.00 0.00 58 1013.6
20260831214537 92 89 1.0 2.0 0.00 0.00 0.00 56 1013.6
20260831213032 92 214 0.0 3.0 0.00 0.00 0.00 58 1013.7
20260831211529 91 292 1.0 3.0 0.00 0.00 0.00 58 1013.8
20260831210028 91 224 1.0 4.0 0.00 0.00 0.00 58 1014.0
20260831204527 90 224 2.0 7.0 0.00 0.00 0.00 57 1013.9
20260831203025 90 210 3.0 7.0 0.00 0.00 0.00 57 1014.2
20260831201524 91 258 1.0 4.0 0.00 0.00 0.00 61 1014.2
20260831200023 91 248 1.0 5.0 0.00 0.00 0.00 61 1014.3
20260831194521 91 255 1.0 4.0 0.00 0.00 0.00 62 1014.4
20260831193031 90 243 3.0 7.0 0.00 0.00 0.00 59 1014.5
20260831191516 89 269 2.0 8.0 0.00 0.00 0.00 59 1014.5
20260831190032 88 284 1.0 6.0 0.00 0.00 0.00 63 1014.6
20260831184511 88 205 2.0 5.0 0.00 0.00 0.00 66 1014.7
20260831183011 87 205 3.0 9.0 0.00 0.00 0.00 67 1014.9
20260831181506 86 254 2.0 8.0 0.00 0.00 0.00 68 1015.0
20260831180005 86 181 2.0 6.0 0.00 0.00 0.00 71 1015.0
20260831174631 84 272 2.0 5.0 0.00 0.00 0.00 70 1015.0
20260831173058 83 273 0.0 3.0 0.00 0.00 0.00 71 1014.9
20260831171555 83 210 1.0 3.0 0.00 0.00 0.00 73 1014.8
20260831170057 83 252 2.0 5.0 0.00 0.00 0.00 73 1014.8
20260831164556 83 293 1.0 3.0 0.00 0.00 0.00 72 1014.7
20260831163050 83 270 1.0 3.0 0.00 0.00 0.00 73 1014.6
20260831161546 81 252 1.0 4.0 0.00 0.00 0.00 75 1014.6
20260831160042 80 310 1.0 6.0 0.00 0.00 0.00 76 1014.3
20260831154541 79 347 0.0 3.0 0.00 0.00 0.00 78 1014.2
20260831153043 77 354 1.0 5.0 0.00 0.00 0.00 80 1013.9
20260831151538 76 286 0.0 3.0 0.00 0.00 0.00 82 1013.7
20260831150028 74 301 0.0 3.0 0.00 0.00 0.00 84 1013.5
20260831144527 73 284 0.0 2.0 0.00 0.00 0.00 85 1013.5
20260831143029 73 283 0.0 3.0 0.00 0.00 0.00 84 1013.8
20260831141526 73 101 1.0 4.0 0.00 0.00 0.00 84 1013.7
20260831140031 73 292 1.0 4.0 0.00 0.00 0.00 84 1013.6
20260831134525 73 248 0.0 1.0 0.00 0.00 0.00 83 1013.3
20260831133022 0 0.0 0.0 0.00 0.00 0.00 1013.3
20260831131519 0 0.0 0.0 0.00 0.00 0.00 1012.7
20260831130015 0 0.0 0.0 0.00 0.00 0.00 1012.8
20260831124509 0 0.0 0.0 0.00 0.00 0.00 1012.9
20260831123007 0 0.0 0.0 0.00 0.00 0.00 1013.4
20260831121501 0 0.0 0.0 0.00 0.00 0.00 1013.7
20260831120057 0 0.0 0.0 0.00 0.00 0.00 1013.6
20260831114553 0 0.0 0.0 0.00 0.00 0.00 1013.5
20260831113055 0 0.0 0.0 0.00 0.00 0.00 1012.7
20260831111545 0 0.0 0.0 0.00 0.00 0.00 1012.5
20260831110040 0 0.0 0.0 0.00 0.00 0.00 1011.8
20260831104549 0 0.0 0.0 0.00 0.00 0.00 1011.8
20260831103032 0 207 0.0 2.0 0.00 0.00 0.00 1011.5
20260831101529 72 209 0.0 2.0 0.00 0.00 0.00 93 1011.5
20260831100028 72 194 1.0 4.0 0.00 0.00 0.00 91 1011.6
20260831094537 72 290 1.0 3.0 0.00 0.00 0.00 91 1011.3
20260831093030 73 288 0.0 1.0 0.00 0.00 0.00 91 1010.8
20260831091536 73 288 1.0 2.0 0.00 0.00 0.00 90 1010.9
20260831090022 73 219 0.0 3.0 0.00 0.00 0.00 89 1010.6
20260831084549 74 224 0.0 2.0 0.00 0.00 0.00 88 1010.3
20260831083020 74 224 0.0 3.0 0.00 0.00 0.00 88 1010.2
20260831081520 73 229 2.0 6.0 0.00 0.00 0.00 91 1010.3
20260831080036 72 223 1.0 3.0 0.00 0.00 0.00 93 1010.4
20260831074535 72 145 0.0 1.0 0.00 0.00 0.00 93 1010.2
20260831073018 72 225 0.0 1.0 0.00 0.00 0.00 93 1010.4
20260831071517 72 197 1.0 2.0 0.00 0.00 0.00 92 1010.3
20260831070017 73 195 1.0 2.0 0.00 0.00 0.00 90 1010.6
20260831064517 73 287 1.0 3.0 0.00 0.00 0.00 91 1010.8
20260831063016 72 293 2.0 3.0 0.00 0.00 0.00 95 1010.7
20260831061513 72 293 0.0 1.0 0.00 0.00 0.00 95 1010.5
20260831060011 72 293 0.0 0.0 0.00 0.00 0.00 94 1010.3
20260831054511 72 293 0.0 1.0 0.00 0.00 0.00 93 1010.0
20260831053006 73 293 0.0 1.0 0.00 0.00 0.00 92 1009.9
20260831051512 73 293 0.0 1.0 0.00 0.00 0.00 92 1009.9
20260831050111 74 293 0.0 0.0 0.00 0.00 0.00 91 1009.8
20260831044600 75 293 0.0 1.0 0.00 0.00 0.00 90 1009.8
20260831043059 76 293 0.0 2.0 0.00 0.00 0.00 89 1010.0
20260831041559 77 293 0.0 1.0 0.00 0.00 0.00 87 1010.0
20260831040059 77 86 0.0 1.0 0.00 0.00 0.00 87 1009.9
20260831034610 77 86 0.0 0.0 0.00 0.00 0.00 88 1009.9
20260831033101 77 86 2.0 2.0 0.00 0.00 0.00 91 1009.8
20260831031557 78 245 0.0 0.0 0.00 0.00 0.00 88 1009.9
20260831030056 79 244 0.0 0.0 0.00 0.00 0.00 85 1009.9
20260831024559 80 244 0.0 0.0 0.00 0.00 0.00 84 1009.9
20260831023053 80 244 0.0 1.0 0.00 0.00 0.00 84 1009.8
20260831021553 80 244 0.0 0.0 0.00 0.00 0.00 85 1009.6
20260831020052 81 245 0.0 0.0 0.00 0.00 0.00 83 1009.4
20260831014551 82 244 0.0 0.0 0.00 0.00 0.00 80 1009.3
20260831013051 82 244 0.0 0.0 0.00 0.00 0.00 80 1009.1
20260831011558 83 244 0.0 0.0 0.00 0.00 0.00 78 1009.0
20260831010100 84 245 0.0 0.0 0.00 0.00 0.00 76 1008.9
20260831004548 85 245 0.0 0.0 0.00 0.00 0.00 75 1008.9
20260831003050 87 244 0.0 0.0 0.00 0.00 0.00 73 1008.9
20260831001547 88 245 0.0 0.0 0.00 0.00 0.00 67 1008.9
20260831000047 88 245 0.0 2.0 0.00 0.00 0.00 65 1009.0
20260830234546 89 244 0.0 1.0 0.00 0.00 0.00 66 1008.9
20260830233052 89 244 0.0 1.0 0.00 0.00 0.00 64 1008.9
20260830231546 90 245 0.0 2.0 0.00 0.00 0.00 65 1008.9
20260830230045 90 252 0.0 3.0 0.00 0.00 0.00 62 1008.9
20260830224543 90 256 0.0 4.0 0.00 0.00 0.00 62 1008.7
20260830223043 90 210 2.0 6.0 0.00 0.00 0.00 63 1008.7
20260830221542 90 221 2.0 5.0 0.00 0.00 0.00 62 1008.8